Вернуться в каталог

COSMOS 1261 DEB

АктивенHEO
NORAD 12893·DEBRIS·🇷🇺 Russia

Запущен Mar 31, 1981 с Plesetsk Cosmodrome

Loading…

Ближайшие Пролёты (ближайшие 24 часа)

TLE

СвежийSource: Space-Track

Эпоха: Sep 13, 2026, 10:00 UTC

1 12893U 81031F   26256.41725401  .00000666  00000-0  00000-0 0  9999
2 12893  63.9435 334.4780 7167667  25.3880 356.9999  2.01094892313888

Отслеживайте COSMOS 1261 DEB в реальном времени с AllMySat

Download on the App Store